Time,TemperatureF,DewpointF,PressureIn,WindDirection,WindDirectionDegrees,WindSpeedMPH,WindSpeedGustMPH,Humidity,HourlyPrecipIn,Conditions,Clouds,dailyrainin,SoftwareType,DateUTC
2013-01-17 00:04:00,41.9,7.8,30.26,NW,320,7.0,10.0,24,0.00,,,0.00,VWS V14.01,2013-01-17 07:04:00,
2013-01-17 00:09:00,41.9,7.8,30.26,NW,312,6.0,13.0,24,0.00,,,0.00,VWS V14.01,2013-01-17 07:09:00,
2013-01-17 00:14:00,41.8,7.7,30.26,NNW,333,9.0,11.0,24,0.00,,,0.00,VWS V14.01,2013-01-17 07:14:00,
2013-01-17 00:19:00,41.8,7.7,30.25,NNW,340,11.0,13.0,24,0.00,,,0.00,VWS V14.01,2013-01-17 07:19:00,
2013-01-17 00:24:00,41.8,7.7,30.26,NNW,327,7.0,11.0,24,0.00,,,0.00,VWS V14.01,2013-01-17 07:24:00,
2013-01-17 00:29:00,41.8,7.7,30.25,NNW,341,10.0,13.0,24,0.00,,,0.00,VWS V14.01,2013-01-17 07:29:00,
2013-01-17 00:34:00,41.8,7.7,30.25,NNW,331,9.0,12.0,24,0.00,,,0.00,VWS V14.01,2013-01-17 07:34:00,
2013-01-17 00:39:00,41.8,7.7,30.25,WNW,296,8.0,12.0,24,0.00,,,0.00,VWS V14.01,2013-01-17 07:39:00,
2013-01-17 00:44:00,41.8,7.7,30.25,NW,311,6.0,14.0,24,0.00,,,0.00,VWS V14.01,2013-01-17 07:44:00,
2013-01-17 00:49:00,41.9,7.8,30.25,North,360,8.0,14.0,24,0.00,,,0.00,VWS V14.01,2013-01-17 07:49:00,
2013-01-17 00:54:00,41.9,7.8,30.25,NW,319,9.0,13.0,24,0.00,,,0.00,VWS V14.01,2013-01-17 07:54:00,
2013-01-17 00:59:00,41.9,7.8,30.25,NW,325,7.0,14.0,24,0.00,,,0.00,VWS V14.01,2013-01-17 07:59:00,
2013-01-17 01:04:00,42.0,7.8,30.25,NW,323,5.0,13.0,24,0.00,,,0.00,VWS V14.01,2013-01-17 08:04:00,
2013-01-17 01:09:00,41.9,7.8,30.25,NNW,335,6.0,11.0,24,0.00,,,0.00,VWS V14.01,2013-01-17 08:09:00,
2013-01-17 01:14:00,42.0,7.8,30.25,NNW,333,5.0,11.0,24,0.00,,,0.00,VWS V14.01,2013-01-17 08:14:00,
2013-01-17 01:19:00,42.0,7.8,30.24,NNW,328,5.0,9.0,24,0.00,,,0.00,VWS V14.01,2013-01-17 08:19:00,
2013-01-17 01:24:00,42.0,7.8,30.24,NNW,338,9.0,12.0,24,0.00,,,0.00,VWS V14.01,2013-01-17 08:24:00,
2013-01-17 01:29:00,42.0,7.8,30.24,NW,326,10.0,12.0,24,0.00,,,0.00,VWS V14.01,2013-01-17 08:29:00,
2013-01-17 01:34:00,42.0,7.8,30.25,WNW,300,7.0,11.0,24,0.00,,,0.00,VWS V14.01,2013-01-17 08:34:00,
2013-01-17 01:39:00,42.0,7.8,30.24,NW,322,7.0,12.0,24,0.00,,,0.00,VWS V14.01,2013-01-17 08:39:00,
2013-01-17 01:44:00,42.0,8.7,30.24,NW,326,10.0,11.0,25,0.00,,,0.00,VWS V14.01,2013-01-17 08:44:00,
2013-01-17 01:49:00,42.0,8.7,30.24,NW,317,7.0,12.0,25,0.00,,,0.00,VWS V14.01,2013-01-17 08:49:00,
2013-01-17 01:54:00,42.1,8.8,30.24,NNW,329,4.0,12.0,25,0.00,,,0.00,VWS V14.01,2013-01-17 08:54:00,
2013-01-17 01:59:00,42.1,8.8,30.24,NNW,329,7.0,12.0,25,0.00,,,0.00,VWS V14.01,2013-01-17 08:59:00,
2013-01-17 02:04:00,42.0,8.7,30.24,NW,317,8.0,12.0,25,0.00,,,0.00,VWS V14.01,2013-01-17 09:04:00,
2013-01-17 02:09:00,42.1,8.8,30.24,NNW,339,13.0,13.0,25,0.00,,,0.00,VWS V14.01,2013-01-17 09:09:00,
2013-01-17 02:14:00,42.1,8.8,30.24,NW,317,5.0,10.0,25,0.00,,,0.00,VWS V14.01,2013-01-17 09:14:00,
2013-01-17 02:19:00,42.0,8.7,30.24,NNW,327,4.0,11.0,25,0.00,,,0.00,VWS V14.01,2013-01-17 09:19:00,
2013-01-17 02:24:00,41.9,8.7,30.24,NNW,331,6.0,14.0,25,0.00,,,0.00,VWS V14.01,2013-01-17 09:24:00,
2013-01-17 02:29:00,41.8,8.6,30.23,North,360,10.0,13.0,25,0.00,,,0.00,VWS V14.01,2013-01-17 09:29:00,
2013-01-17 02:34:00,41.8,8.6,30.23,NNW,330,10.0,11.0,25,0.00,,,0.00,VWS V14.01,2013-01-17 09:34:00,
2013-01-17 02:39:00,41.7,8.5,30.23,NW,312,5.0,10.0,25,0.00,,,0.00,VWS V14.01,2013-01-17 09:39:00,
2013-01-17 02:44:00,41.7,8.5,30.23,NNW,342,6.0,14.0,25,0.00,,,0.00,VWS V14.01,2013-01-17 09:44:00,
2013-01-17 02:49:00,41.6,8.4,30.23,NW,321,7.0,10.0,25,0.00,,,0.00,VWS V14.01,2013-01-17 09:49:00,
2013-01-17 02:54:00,41.6,8.4,30.23,NNW,345,5.0,10.0,25,0.00,,,0.00,VWS V14.01,2013-01-17 09:54:00,
2013-01-17 02:59:00,41.7,8.5,30.23,NNW,345,6.0,11.0,25,0.00,,,0.00,VWS V14.01,2013-01-17 09:59:00,
2013-01-17 03:04:00,41.8,8.6,30.23,NNW,345,8.0,12.0,25,0.00,,,0.00,VWS V14.01,2013-01-17 10:04:00,
2013-01-17 03:09:00,41.9,8.7,30.23,North,350,7.0,9.0,25,0.00,,,0.00,VWS V14.01,2013-01-17 10:09:00,
2013-01-17 03:14:00,42.0,8.7,30.23,NNW,346,7.0,13.0,25,0.00,,,0.00,VWS V14.01,2013-01-17 10:14:00,
2013-01-17 03:19:00,42.1,8.8,30.23,NNW,348,5.0,10.0,25,0.00,,,0.00,VWS V14.01,2013-01-17 10:19:00,
2013-01-17 03:24:00,42.1,8.8,30.23,NNW,338,4.0,9.0,25,0.00,,,0.00,VWS V14.01,2013-01-17 10:24:00,
2013-01-17 03:29:00,42.0,8.7,30.23,North,355,8.0,13.0,25,0.00,,,0.00,VWS V14.01,2013-01-17 10:29:00,
2013-01-17 03:34:00,42.0,8.7,30.23,North,5,4.0,9.0,25,0.00,,,0.00,VWS V14.01,2013-01-17 10:34:00,
2013-01-17 03:39:00,42.0,8.7,30.23,NNW,346,6.0,10.0,25,0.00,,,0.00,VWS V14.01,2013-01-17 10:39:00,
2013-01-17 03:44:00,42.0,8.7,30.23,NNW,333,5.0,9.0,25,0.00,,,0.00,VWS V14.01,2013-01-17 10:44:00,
2013-01-17 03:49:00,41.9,8.7,30.23,NNW,342,7.0,9.0,25,0.00,,,0.00,VWS V14.01,2013-01-17 10:49:00,
2013-01-17 03:54:00,41.8,8.6,30.22,NNW,340,8.0,11.0,25,0.00,,,0.00,VWS V14.01,2013-01-17 10:54:00,
2013-01-17 03:59:00,41.6,9.3,30.23,NW,324,6.0,13.0,26,0.00,,,0.00,VWS V14.01,2013-01-17 10:59:00,
2013-01-17 04:04:00,41.5,9.2,30.22,NNW,332,5.0,10.0,26,0.00,,,0.00,VWS V14.01,2013-01-17 11:04:00,
2013-01-17 04:09:00,41.4,9.1,30.22,NNW,348,7.0,10.0,26,0.00,,,0.00,VWS V14.01,2013-01-17 11:09:00,
2013-01-17 04:14:00,41.1,8.8,30.22,NNW,333,7.0,10.0,26,0.00,,,0.00,VWS V14.01,2013-01-17 11:14:00,
2013-01-17 04:19:00,41.0,9.6,30.22,NNW,330,9.0,10.0,27,0.00,,,0.00,VWS V14.01,2013-01-17 11:19:00,
2013-01-17 04:24:00,40.9,9.5,30.22,NNW,343,9.0,11.0,27,0.00,,,0.00,VWS V14.01,2013-01-17 11:24:00,
2013-01-17 04:29:00,40.8,9.4,30.22,North,355,10.0,10.0,27,0.00,,,0.00,VWS V14.01,2013-01-17 11:29:00,
2013-01-17 04:34:00,40.7,9.3,30.22,NNW,345,10.0,12.0,27,0.00,,,0.00,VWS V14.01,2013-01-17 11:34:00,
2013-01-17 04:39:00,40.6,9.2,30.22,NW,326,7.0,12.0,27,0.00,,,0.00,VWS V14.01,2013-01-17 11:39:00,
2013-01-17 04:44:00,40.5,9.2,30.22,NNW,334,8.0,10.0,27,0.00,,,0.00,VWS V14.01,2013-01-17 11:44:00,
2013-01-17 04:49:00,40.5,9.2,30.22,NNW,327,8.0,14.0,27,0.00,,,0.00,VWS V14.01,2013-01-17 11:49:00,
2013-01-17 04:54:00,40.5,9.2,30.22,NNW,347,7.0,13.0,27,0.00,,,0.00,VWS V14.01,2013-01-17 11:54:00,
2013-01-17 04:59:00,40.5,9.2,30.22,NNW,338,10.0,13.0,27,0.00,,,0.00,VWS V14.01,2013-01-17 11:59:00,
2013-01-17 05:04:00,40.5,9.2,30.22,NNW,339,5.0,12.0,27,0.00,,,0.00,VWS V14.01,2013-01-17 12:04:00,
2013-01-17 05:09:00,40.5,9.2,30.22,NW,326,7.0,14.0,27,0.00,,,0.00,VWS V14.01,2013-01-17 12:09:00,
2013-01-17 05:14:00,40.5,9.2,30.22,WNW,300,13.0,14.0,27,0.00,,,0.00,VWS V14.01,2013-01-17 12:14:00,
2013-01-17 05:19:00,40.5,9.2,30.22,NNW,343,9.0,13.0,27,0.00,,,0.00,VWS V14.01,2013-01-17 12:19:00,
2013-01-17 05:24:00,40.6,9.2,30.22,NNW,338,7.0,13.0,27,0.00,,,0.00,VWS V14.01,2013-01-17 12:24:00,
2013-01-17 05:29:00,40.7,9.3,30.22,NNW,344,11.0,12.0,27,0.00,,,0.00,VWS V14.01,2013-01-17 12:29:00,
2013-01-17 05:34:00,40.7,9.3,30.22,North,355,7.0,12.0,27,0.00,,,0.00,VWS V14.01,2013-01-17 12:34:00,
2013-01-17 05:39:00,40.8,9.4,30.22,NNW,339,6.0,11.0,27,0.00,,,0.00,VWS V14.01,2013-01-17 12:39:00,
2013-01-17 05:44:00,40.8,9.4,30.22,NW,315,7.0,13.0,27,0.00,,,0.00,VWS V14.01,2013-01-17 12:44:00,
2013-01-17 05:49:00,40.8,9.4,30.22,NW,304,9.0,13.0,27,0.00,,,0.00,VWS V14.01,2013-01-17 12:49:00,
2013-01-17 05:54:00,40.8,9.4,30.22,NNW,334,7.0,13.0,27,0.00,,,0.00,VWS V14.01,2013-01-17 12:54:00,
2013-01-17 05:59:00,40.8,9.4,30.22,NW,318,10.0,13.0,27,0.00,,,0.00,VWS V14.01,2013-01-17 12:59:00,
2013-01-17 06:04:00,40.8,9.4,30.22,North,355,10.0,14.0,27,0.00,,,0.00,VWS V14.01,2013-01-17 13:04:00,
2013-01-17 06:09:00,40.7,9.3,30.22,North,360,10.0,12.0,27,0.00,,,0.00,VWS V14.01,2013-01-17 13:09:00,
2013-01-17 06:14:00,40.8,9.4,30.22,NNW,344,6.0,13.0,27,0.00,,,0.00,VWS V14.01,2013-01-17 13:14:00,
2013-01-17 06:19:00,40.8,10.2,30.22,NNW,338,13.0,15.0,28,0.00,,,0.00,VWS V14.01,2013-01-17 13:19:00,
2013-01-17 06:25:00,40.7,10.1,30.22,NNW,348,8.0,12.0,28,0.00,,,0.00,VWS V14.01,2013-01-17 13:25:00,
2013-01-17 06:30:00,40.7,10.1,30.22,NNW,341,8.0,13.0,28,0.00,,,0.00,VWS V14.01,2013-01-17 13:30:00,
2013-01-17 06:35:00,40.7,10.1,30.23,North,350,10.0,14.0,28,0.00,,,0.00,VWS V14.01,2013-01-17 13:35:00,
2013-01-17 06:40:00,40.9,10.3,30.23,NW,309,12.0,15.0,28,0.00,,,0.00,VWS V14.01,2013-01-17 13:40:00,
2013-01-17 06:45:00,40.9,10.3,30.23,NNW,341,7.0,14.0,28,0.00,,,0.00,VWS V14.01,2013-01-17 13:45:00,
2013-01-17 06:50:00,41.0,10.4,30.22,NNW,338,6.0,13.0,28,0.00,,,0.00,VWS V14.01,2013-01-17 13:50:00,
2013-01-17 06:55:00,41.1,10.5,30.22,NNW,346,12.0,13.0,28,0.00,,,0.00,VWS V14.01,2013-01-17 13:55:00,
2013-01-17 07:00:00,41.1,10.5,30.22,NNW,335,10.0,16.0,28,0.00,,,0.00,VWS V14.01,2013-01-17 14:00:00,
2013-01-17 07:05:00,41.0,10.4,30.22,NNW,340,11.0,12.0,28,0.00,,,0.00,VWS V14.01,2013-01-17 14:05:00,
2013-01-17 07:10:00,40.9,10.3,30.22,NNW,333,7.0,12.0,28,0.00,,,0.00,VWS V14.01,2013-01-17 14:10:00,
2013-01-17 07:15:00,40.8,10.2,30.23,North,351,8.0,12.0,28,0.00,,,0.00,VWS V14.01,2013-01-17 14:15:00,
2013-01-17 07:20:00,40.8,10.2,30.23,NNW,346,11.0,14.0,28,0.00,,,0.00,VWS V14.01,2013-01-17 14:20:00,
2013-01-17 07:25:00,40.8,10.2,30.23,NNW,340,7.0,14.0,28,0.00,,,0.00,VWS V14.01,2013-01-17 14:25:00,
2013-01-17 07:30:00,40.9,10.3,30.23,NNW,338,10.0,14.0,28,0.00,,,0.00,VWS V14.01,2013-01-17 14:30:00,
2013-01-17 07:35:00,41.0,10.4,30.23,NNW,344,6.0,13.0,28,0.00,,,0.00,VWS V14.01,2013-01-17 14:35:00,
2013-01-17 07:40:00,41.1,10.5,30.23,NNW,329,7.0,13.0,28,0.00,,,0.00,VWS V14.01,2013-01-17 14:40:00,
2013-01-17 07:45:00,41.2,10.6,30.23,NNW,342,11.0,14.0,28,0.00,,,0.00,VWS V14.01,2013-01-17 14:45:00,
2013-01-17 07:50:00,41.3,10.7,30.24,NNW,327,4.0,14.0,28,0.00,,,0.00,VWS V14.01,2013-01-17 14:50:00,
2013-01-17 07:55:00,41.4,10.8,30.24,NNW,337,8.0,12.0,28,0.00,,,0.00,VWS V14.01,2013-01-17 14:55:00,
2013-01-17 08:00:00,41.6,10.9,30.24,NNW,329,9.0,11.0,28,0.00,,,0.00,VWS V14.01,2013-01-17 15:00:00,
2013-01-17 08:05:00,42.0,11.3,30.24,NNW,328,4.0,11.0,28,0.00,,,0.00,VWS V14.01,2013-01-17 15:05:00,
2013-01-17 08:10:00,42.4,10.8,30.24,North,355,5.0,12.0,27,0.00,,,0.00,VWS V14.01,2013-01-17 15:10:00,
2013-01-17 08:15:00,42.8,11.1,30.24,NNW,333,5.0,12.0,27,0.00,,,0.00,VWS V14.01,2013-01-17 15:15:00,
2013-01-17 08:20:00,43.3,11.6,30.24,North,351,6.0,13.0,27,0.00,,,0.00,VWS V14.01,2013-01-17 15:20:00,
2013-01-17 08:25:00,43.9,11.2,30.25,NW,317,10.0,12.0,26,0.00,,,0.00,VWS V14.01,2013-01-17 15:25:00,
2013-01-17 08:30:00,44.3,11.6,30.25,NW,311,7.0,11.0,26,0.00,,,0.00,VWS V14.01,2013-01-17 15:30:00,
2013-01-17 08:35:00,44.8,12.0,30.25,NNW,337,6.0,11.0,26,0.00,,,0.00,VWS V14.01,2013-01-17 15:35:00,
2013-01-17 08:40:00,45.3,11.6,30.25,NNW,344,9.0,12.0,25,0.00,,,0.00,VWS V14.01,2013-01-17 15:40:00,
2013-01-17 08:45:00,45.8,12.0,30.24,North,5,6.0,13.0,25,0.00,,,0.00,VWS V14.01,2013-01-17 15:45:00,
2013-01-17 08:50:00,46.3,12.4,30.25,NW,304,5.0,10.0,25,0.00,,,0.00,VWS V14.01,2013-01-17 15:50:00,
2013-01-17 08:55:00,46.8,12.9,30.25,NW,321,9.0,11.0,25,0.00,,,0.00,VWS V14.01,2013-01-17 15:55:00,
2013-01-17 09:00:00,47.4,12.4,30.25,NNW,344,9.0,12.0,24,0.00,,,0.00,VWS V14.01,2013-01-17 16:00:00,
2013-01-17 09:05:00,47.9,12.9,30.25,NNW,329,8.0,15.0,24,0.00,,,0.00,VWS V14.01,2013-01-17 16:05:00,
2013-01-17 09:10:00,48.5,12.4,30.25,NW,325,4.0,9.0,23,0.00,,,0.00,VWS V14.01,2013-01-17 16:10:00,
2013-01-17 09:15:00,49.0,12.8,30.25,NW,316,11.0,12.0,23,0.00,,,0.00,VWS V14.01,2013-01-17 16:15:00,
2013-01-17 09:20:00,49.6,13.3,30.26,NNW,336,6.0,10.0,23,0.00,,,0.00,VWS V14.01,2013-01-17 16:20:00,
2013-01-17 09:25:00,50.2,12.8,30.26,NNW,333,10.0,11.0,22,0.00,,,0.00,VWS V14.01,2013-01-17 16:25:00,
2013-01-17 09:30:00,50.6,13.2,30.26,North,355,6.0,11.0,22,0.00,,,0.00,VWS V14.01,2013-01-17 16:30:00,
2013-01-17 09:35:00,51.2,12.6,30.26,NW,315,4.0,12.0,21,0.00,,,0.00,VWS V14.01,2013-01-17 16:35:00,
2013-01-17 09:40:00,51.7,13.0,30.26,North,360,6.0,9.0,21,0.00,,,0.00,VWS V14.01,2013-01-17 16:40:00,
2013-01-17 09:45:00,52.3,13.5,30.26,NNW,346,6.0,11.0,21,0.00,,,0.00,VWS V14.01,2013-01-17 16:45:00,
2013-01-17 09:50:00,52.8,12.9,30.26,North,350,5.0,10.0,20,0.00,,,0.00,VWS V14.01,2013-01-17 16:50:00,
2013-01-17 09:55:00,53.3,13.3,30.26,NW,317,8.0,8.0,20,0.00,,,0.00,VWS V14.01,2013-01-17 16:55:00,
2013-01-17 10:00:00,53.8,13.7,30.26,NNW,333,2.0,9.0,20,0.00,,,0.00,VWS V14.01,2013-01-17 17:00:00,
2013-01-17 10:05:00,54.4,13.0,30.26,WNW,295,2.0,8.0,19,0.00,,,0.00,VWS V14.01,2013-01-17 17:05:00,
2013-01-17 10:10:00,54.9,13.4,30.26,North,360,6.0,8.0,19,0.00,,,0.00,VWS V14.01,2013-01-17 17:10:00,
2013-01-17 10:15:00,55.4,13.9,30.26,NW,315,1.0,8.0,19,0.00,,,0.00,VWS V14.01,2013-01-17 17:15:00,
2013-01-17 10:20:00,55.9,14.3,30.26,NW,325,4.0,7.0,19,0.00,,,0.00,VWS V14.01,2013-01-17 17:20:00,
2013-01-17 10:25:00,56.5,13.5,30.26,NW,323,2.0,8.0,18,0.00,,,0.00,VWS V14.01,2013-01-17 17:25:00,
2013-01-17 10:30:00,56.9,13.9,30.26,North,350,6.0,7.0,18,0.00,,,0.00,VWS V14.01,2013-01-17 17:30:00,
2013-01-17 10:35:00,57.6,14.4,30.25,North,350,2.0,4.0,18,0.00,,,0.00,VWS V14.01,2013-01-17 17:35:00,
2013-01-17 10:40:00,58.4,13.8,30.25,NNW,346,1.0,5.0,17,0.00,,,0.00,VWS V14.01,2013-01-17 17:40:00,
2013-01-17 10:45:00,59.4,14.6,30.25,WNW,291,3.0,6.0,17,0.00,,,0.00,VWS V14.01,2013-01-17 17:45:00,
2013-01-17 10:50:00,60.1,16.5,30.25,WNW,289,1.0,5.0,18,0.00,,,0.00,VWS V14.01,2013-01-17 17:50:00,
2013-01-17 10:55:00,60.4,16.7,30.25,West,279,1.0,3.0,18,0.00,,,0.00,VWS V14.01,2013-01-17 17:55:00,
2013-01-17 11:00:00,60.7,17.0,30.25,West,279,0.0,4.0,18,0.00,,,0.00,VWS V14.01,2013-01-17 18:00:00,
2013-01-17 11:05:00,61.1,17.3,30.24,West,279,0.0,2.0,18,0.00,,,0.00,VWS V14.01,2013-01-17 18:05:00,
2013-01-17 11:10:00,61.6,16.4,30.24,West,279,0.0,1.0,17,0.00,,,0.00,VWS V14.01,2013-01-17 18:10:00,
2013-01-17 11:15:00,62.2,14.0,30.24,NNW,343,0.0,6.0,15,0.00,,,0.00,VWS V14.01,2013-01-17 18:15:00,
2013-01-17 11:20:00,62.6,15.8,30.24,SSW,211,7.0,7.0,16,0.00,,,0.00,VWS V14.01,2013-01-17 18:20:00,
2013-01-17 11:25:00,63.2,14.8,30.23,SW,223,2.0,7.0,15,0.00,,,0.00,VWS V14.01,2013-01-17 18:25:00,
2013-01-17 11:30:00,63.8,15.3,30.23,SW,222,3.0,7.0,15,0.00,,,0.00,VWS V14.01,2013-01-17 18:30:00,
2013-01-17 11:35:00,64.2,14.0,30.23,West,265,0.0,5.0,14,0.00,,,0.00,VWS V14.01,2013-01-17 18:35:00,
2013-01-17 11:40:00,64.6,15.9,30.23,WSW,256,0.0,5.0,15,0.00,,,0.00,VWS V14.01,2013-01-17 18:40:00,
2013-01-17 11:45:00,65.0,14.7,30.22,WSW,256,0.0,4.0,14,0.00,,,0.00,VWS V14.01,2013-01-17 18:45:00,
2013-01-17 11:50:00,65.2,14.8,30.22,WSW,257,0.0,5.0,14,0.00,,,0.00,VWS V14.01,2013-01-17 18:50:00,
2013-01-17 11:55:00,65.7,15.2,30.22,WSW,252,0.0,4.0,14,0.00,,,0.00,VWS V14.01,2013-01-17 18:55:00,
2013-01-17 12:00:00,65.8,13.6,30.21,North,360,0.0,6.0,13,0.00,,,0.00,VWS V14.01,2013-01-17 19:00:00,
2013-01-17 12:05:00,66.0,13.8,30.21,West,275,2.0,5.0,13,0.00,,,0.00,VWS V14.01,2013-01-17 19:05:00,
2013-01-17 12:10:00,66.1,13.9,30.20,West,275,0.0,4.0,13,0.00,,,0.00,VWS V14.01,2013-01-17 19:10:00,
2013-01-17 12:15:00,66.5,12.4,30.20,SW,236,3.0,7.0,12,0.00,,,0.00,VWS V14.01,2013-01-17 19:15:00,
2013-01-17 12:20:00,66.6,12.4,30.20,SW,235,4.0,6.0,12,0.00,,,0.00,VWS V14.01,2013-01-17 19:20:00,
2013-01-17 12:25:00,66.8,14.4,30.20,SW,234,5.0,6.0,13,0.00,,,0.00,VWS V14.01,2013-01-17 19:25:00,
2013-01-17 12:30:00,67.0,12.8,30.20,SW,235,0.0,5.0,12,0.00,,,0.00,VWS V14.01,2013-01-17 19:30:00,
2013-01-17 12:35:00,67.2,12.9,30.19,WNW,285,1.0,6.0,12,0.00,,,0.00,VWS V14.01,2013-01-17 19:35:00,
2013-01-17 12:40:00,67.3,13.0,30.19,West,281,3.0,5.0,12,0.00,,,0.00,VWS V14.01,2013-01-17 19:40:00,
2013-01-17 12:45:00,67.0,12.8,30.19,WNW,283,2.0,4.0,12,0.00,,,0.00,VWS V14.01,2013-01-17 19:45:00,
2013-01-17 12:50:00,66.9,12.7,30.18,West,259,6.0,7.0,12,0.00,,,0.00,VWS V14.01,2013-01-17 19:50:00,
2013-01-17 12:55:00,67.1,12.8,30.18,WSW,257,1.0,4.0,12,0.00,,,0.00,VWS V14.01,2013-01-17 19:55:00,
2013-01-17 13:00:00,67.1,12.8,30.18,WSW,257,2.0,3.0,12,0.00,,,0.00,VWS V14.01,2013-01-17 20:00:00,
2013-01-17 13:05:00,67.3,13.0,30.17,West,269,4.0,6.0,12,0.00,,,0.00,VWS V14.01,2013-01-17 20:05:00,
2013-01-17 13:10:00,67.4,13.1,30.17,WSW,252,0.0,6.0,12,0.00,,,0.00,VWS V14.01,2013-01-17 20:10:00,
2013-01-17 13:15:00,67.4,11.1,30.17,WSW,252,0.0,3.0,11,0.00,,,0.00,VWS V14.01,2013-01-17 20:15:00,
2013-01-17 13:20:00,67.6,11.2,30.16,West,270,2.0,4.0,11,0.00,,,0.00,VWS V14.01,2013-01-17 20:20:00,
2013-01-17 13:25:00,67.7,11.3,30.16,West,277,1.0,5.0,11,0.00,,,0.00,VWS V14.01,2013-01-17 20:25:00,
2013-01-17 13:30:00,67.6,13.2,30.16,West,265,4.0,4.0,12,0.00,,,0.00,VWS V14.01,2013-01-17 20:30:00,
2013-01-17 13:35:00,68.1,13.6,30.16,SW,234,4.0,6.0,12,0.00,,,0.00,VWS V14.01,2013-01-17 20:35:00,
2013-01-17 13:40:00,68.2,13.7,30.15,SW,234,2.0,3.0,12,0.00,,,0.00,VWS V14.01,2013-01-17 20:40:00,
2013-01-17 13:45:00,68.6,14.0,30.15,SW,228,0.0,9.0,12,0.00,,,0.00,VWS V14.01,2013-01-17 20:45:00,
2013-01-17 13:50:00,68.7,12.1,30.14,SW,228,0.0,3.0,11,0.00,,,0.00,VWS V14.01,2013-01-17 20:50:00,
2013-01-17 13:55:00,69.0,12.3,30.14,SW,228,0.0,7.0,11,0.00,,,0.00,VWS V14.01,2013-01-17 20:55:00,
2013-01-17 14:00:00,69.0,12.3,30.14,SW,228,2.0,5.0,11,0.00,,,0.00,VWS V14.01,2013-01-17 21:00:00,
2013-01-17 14:05:00,69.3,12.6,30.14,SW,228,0.0,6.0,11,0.00,,,0.00,VWS V14.01,2013-01-17 21:05:00,
2013-01-17 14:10:00,69.4,12.6,30.13,SW,228,0.0,3.0,11,0.00,,,0.00,VWS V14.01,2013-01-17 21:10:00,
2013-01-17 14:15:00,69.3,12.6,30.13,SW,228,1.0,6.0,11,0.00,,,0.00,VWS V14.01,2013-01-17 21:15:00,
2013-01-17 14:20:00,69.6,12.8,30.13,SW,223,4.0,9.0,11,0.00,,,0.00,VWS V14.01,2013-01-17 21:20:00,
2013-01-17 14:25:00,69.8,13.0,30.13,SW,220,5.0,8.0,11,0.00,,,0.00,VWS V14.01,2013-01-17 21:25:00,
2013-01-17 14:30:00,69.8,13.0,30.13,SSW,198,4.0,7.0,11,0.00,,,0.00,VWS V14.01,2013-01-17 21:30:00,
2013-01-17 14:35:00,69.7,12.9,30.13,SSW,198,4.0,5.0,11,0.00,,,0.00,VWS V14.01,2013-01-17 21:35:00,
2013-01-17 14:40:00,69.9,13.0,30.13,SSW,197,2.0,8.0,11,0.00,,,0.00,VWS V14.01,2013-01-17 21:40:00,
2013-01-17 14:45:00,69.8,13.0,30.13,SSW,199,5.0,8.0,11,0.00,,,0.00,VWS V14.01,2013-01-17 21:45:00,
2013-01-17 14:50:00,69.9,13.0,30.13,SSW,200,3.0,7.0,11,0.00,,,0.00,VWS V14.01,2013-01-17 21:50:00,
2013-01-17 14:55:00,69.9,13.0,30.12,SSW,200,3.0,7.0,11,0.00,,,0.00,VWS V14.01,2013-01-17 21:55:00,
2013-01-17 15:00:00,70.1,11.0,30.12,SSW,211,5.0,7.0,10,0.00,,,0.00,VWS V14.01,2013-01-17 22:00:00,
2013-01-17 15:05:00,70.3,11.2,30.12,SW,221,2.0,5.0,10,0.00,,,0.00,VWS V14.01,2013-01-17 22:05:00,
2013-01-17 15:10:00,70.3,11.2,30.12,West,268,2.0,7.0,10,0.00,,,0.00,VWS V14.01,2013-01-17 22:10:00,
2013-01-17 15:15:00,70.3,11.2,30.12,West,267,1.0,7.0,10,0.00,,,0.00,VWS V14.01,2013-01-17 22:15:00,
2013-01-17 15:21:00,70.1,11.0,30.13,West,264,1.0,8.0,10,0.00,,,0.00,VWS V14.01,2013-01-17 22:21:00,
2013-01-17 15:26:00,70.1,11.0,30.13,WSW,252,6.0,7.0,10,0.00,,,0.00,VWS V14.01,2013-01-17 22:26:00,
2013-01-17 15:31:00,69.9,10.9,30.13,WSW,250,3.0,6.0,10,0.00,,,0.00,VWS V14.01,2013-01-17 22:31:00,
2013-01-17 15:36:00,69.9,10.9,30.13,WSW,243,0.0,8.0,10,0.00,,,0.00,VWS V14.01,2013-01-17 22:36:00,
2013-01-17 15:41:00,70.1,11.0,30.13,West,261,1.0,6.0,10,0.00,,,0.00,VWS V14.01,2013-01-17 22:41:00,
2013-01-17 15:46:00,70.1,11.0,30.13,West,272,0.0,8.0,10,0.00,,,0.00,VWS V14.01,2013-01-17 22:46:00,
2013-01-17 15:51:00,69.9,10.9,30.13,WSW,253,4.0,7.0,10,0.00,,,0.00,VWS V14.01,2013-01-17 22:51:00,
2013-01-17 15:56:00,69.8,10.8,30.13,WSW,253,2.0,6.0,10,0.00,,,0.00,VWS V14.01,2013-01-17 22:56:00,
2013-01-17 16:01:00,69.8,10.8,30.13,WSW,253,2.0,6.0,10,0.00,,,0.00,VWS V14.01,2013-01-17 23:01:00,
2013-01-17 16:06:00,69.8,10.8,30.13,WSW,252,3.0,6.0,10,0.00,,,0.00,VWS V14.01,2013-01-17 23:06:00,
2013-01-17 16:11:00,69.7,10.7,30.14,WSW,252,2.0,5.0,10,0.00,,,0.00,VWS V14.01,2013-01-17 23:11:00,
2013-01-17 16:16:00,69.9,10.9,30.14,WSW,252,0.0,4.0,10,0.00,,,0.00,VWS V14.01,2013-01-17 23:16:00,
2013-01-17 16:21:00,70.0,11.0,30.14,WSW,252,2.0,5.0,10,0.00,,,0.00,VWS V14.01,2013-01-17 23:21:00,
2013-01-17 16:26:00,69.9,13.0,30.14,WSW,252,2.0,4.0,11,0.00,,,0.00,VWS V14.01,2013-01-17 23:26:00,
2013-01-17 16:31:00,69.7,12.9,30.14,WSW,252,0.0,3.0,11,0.00,,,0.00,VWS V14.01,2013-01-17 23:31:00,
2013-01-17 16:36:00,69.7,12.9,30.14,WSW,252,1.0,5.0,11,0.00,,,0.00,VWS V14.01,2013-01-17 23:36:00,
2013-01-17 16:41:00,69.6,12.8,30.14,WSW,252,1.0,4.0,11,0.00,,,0.00,VWS V14.01,2013-01-17 23:41:00,
2013-01-17 16:46:00,69.5,12.7,30.14,WSW,252,2.0,2.0,11,0.00,,,0.00,VWS V14.01,2013-01-17 23:46:00,
2013-01-17 16:51:00,69.6,12.8,30.14,WSW,252,0.0,3.0,11,0.00,,,0.00,VWS V14.01,2013-01-17 23:51:00,
2013-01-17 16:56:00,69.6,12.8,30.14,WSW,252,2.0,4.0,11,0.00,,,0.00,VWS V14.01,2013-01-17 23:56:00,
2013-01-17 17:01:00,69.4,12.6,30.14,WSW,252,1.0,4.0,11,0.00,,,0.00,VWS V14.01,2013-01-18 00:01:00,
2013-01-17 17:06:00,69.3,12.6,30.14,WSW,252,0.0,2.0,11,0.00,,,0.00,VWS V14.01,2013-01-18 00:06:00,
2013-01-17 17:11:00,69.0,12.3,30.14,WSW,252,1.0,4.0,11,0.00,,,0.00,VWS V14.01,2013-01-18 00:11:00,
2013-01-17 17:16:00,68.6,12.0,30.14,WSW,252,0.0,3.0,11,0.00,,,0.00,VWS V14.01,2013-01-18 00:16:00,
2013-01-17 17:21:00,68.1,11.6,30.14,WSW,252,2.0,3.0,11,0.00,,,0.00,VWS V14.01,2013-01-18 00:21:00,
2013-01-17 17:26:00,67.7,13.3,30.14,WSW,252,0.0,2.0,12,0.00,,,0.00,VWS V14.01,2013-01-18 00:26:00,
2013-01-17 17:31:00,67.4,13.1,30.14,WSW,252,0.0,1.0,12,0.00,,,0.00,VWS V14.01,2013-01-18 00:31:00,
2013-01-17 17:36:00,66.8,12.6,30.15,WSW,252,0.0,2.0,12,0.00,,,0.00,VWS V14.01,2013-01-18 00:36:00,
2013-01-17 17:41:00,66.3,14.0,30.15,WSW,252,0.0,1.0,13,0.00,,,0.00,VWS V14.01,2013-01-18 00:41:00,
2013-01-17 17:46:00,65.7,13.5,30.14,WSW,252,0.0,1.0,13,0.00,,,0.00,VWS V14.01,2013-01-18 00:46:00,
2013-01-17 17:51:00,64.8,12.8,30.15,WSW,252,1.0,1.0,13,0.00,,,0.00,VWS V14.01,2013-01-18 00:51:00,
2013-01-17 17:56:00,63.9,13.8,30.15,WSW,252,0.0,0.0,14,0.00,,,0.00,VWS V14.01,2013-01-18 00:56:00,
2013-01-17 18:01:00,62.9,13.0,30.15,WSW,252,0.0,1.0,14,0.00,,,0.00,VWS V14.01,2013-01-18 01:01:00,
2013-01-17 18:06:00,61.9,13.8,30.15,WSW,252,0.0,0.0,15,0.00,,,0.00,VWS V14.01,2013-01-18 01:06:00,
2013-01-17 18:11:00,60.8,14.4,30.15,WSW,252,1.0,2.0,16,0.00,,,0.00,VWS V14.01,2013-01-18 01:11:00,
2013-01-17 18:16:00,59.2,15.7,30.15,WSW,252,2.0,2.0,18,0.00,,,0.00,VWS V14.01,2013-01-18 01:16:00,
2013-01-17 18:21:00,57.7,15.8,30.15,WSW,252,1.0,2.0,19,0.00,,,0.00,VWS V14.01,2013-01-18 01:21:00,
2013-01-17 18:26:00,56.4,15.9,30.15,WSW,252,1.0,2.0,20,0.00,,,0.00,VWS V14.01,2013-01-18 01:26:00,
2013-01-17 18:31:00,55.5,16.2,30.15,WSW,252,3.0,4.0,21,0.00,,,0.00,VWS V14.01,2013-01-18 01:31:00,
2013-01-17 18:36:00,54.4,16.4,30.16,WSW,252,0.0,1.0,22,0.00,,,0.00,VWS V14.01,2013-01-18 01:36:00,
2013-01-17 18:41:00,53.4,16.5,30.16,NW,311,2.0,5.0,23,0.00,,,0.00,VWS V14.01,2013-01-18 01:41:00,
2013-01-17 18:46:00,52.6,16.9,30.16,North,355,4.0,5.0,24,0.00,,,0.00,VWS V14.01,2013-01-18 01:46:00,
2013-01-17 18:51:00,52.3,16.6,30.16,North,355,6.0,6.0,24,0.00,,,0.00,VWS V14.01,2013-01-18 01:51:00,
2013-01-17 18:56:00,52.4,16.7,30.16,NNW,344,5.0,6.0,24,0.00,,,0.00,VWS V14.01,2013-01-18 01:56:00,
2013-01-17 19:01:00,52.4,16.7,30.16,North,355,4.0,4.0,24,0.00,,,0.00,VWS V14.01,2013-01-18 02:01:00,
2013-01-17 19:06:00,52.4,16.7,30.16,North,360,4.0,7.0,24,0.00,,,0.00,VWS V14.01,2013-01-18 02:06:00,
2013-01-17 19:11:00,52.4,16.7,30.16,NNW,343,7.0,7.0,24,0.00,,,0.00,VWS V14.01,2013-01-18 02:11:00,
2013-01-17 19:16:00,52.5,16.8,30.16,NNW,348,5.0,5.0,24,0.00,,,0.00,VWS V14.01,2013-01-18 02:16:00,
2013-01-17 19:21:00,52.6,16.9,30.16,North,355,5.0,5.0,24,0.00,,,0.00,VWS V14.01,2013-01-18 02:21:00,
2013-01-17 19:26:00,52.8,16.0,30.17,NNW,344,6.0,6.0,23,0.00,,,0.00,VWS V14.01,2013-01-18 02:26:00,
2013-01-17 19:31:00,53.0,16.2,30.17,North,351,5.0,6.0,23,0.00,,,0.00,VWS V14.01,2013-01-18 02:31:00,
2013-01-17 19:36:00,53.3,16.5,30.17,NNW,342,5.0,7.0,23,0.00,,,0.00,VWS V14.01,2013-01-18 02:36:00,
2013-01-17 19:41:00,53.5,16.6,30.17,NNW,343,7.0,7.0,23,0.00,,,0.00,VWS V14.01,2013-01-18 02:41:00,
2013-01-17 19:46:00,53.6,15.7,30.17,North,355,5.0,6.0,22,0.00,,,0.00,VWS V14.01,2013-01-18 02:46:00,
2013-01-17 19:51:00,53.7,15.8,30.17,North,351,6.0,6.0,22,0.00,,,0.00,VWS V14.01,2013-01-18 02:51:00,
2013-01-17 19:56:00,53.7,15.8,30.17,North,355,4.0,7.0,22,0.00,,,0.00,VWS V14.01,2013-01-18 02:56:00,
2013-01-17 20:01:00,53.7,15.8,30.17,NNW,346,4.0,6.0,22,0.00,,,0.00,VWS V14.01,2013-01-18 03:01:00,
2013-01-17 20:06:00,53.6,15.7,30.17,NNW,333,3.0,6.0,22,0.00,,,0.00,VWS V14.01,2013-01-18 03:06:00,
2013-01-17 20:11:00,53.5,15.6,30.17,North,349,6.0,7.0,22,0.00,,,0.00,VWS V14.01,2013-01-18 03:11:00,
2013-01-17 20:16:00,53.5,15.6,30.17,North,360,3.0,8.0,22,0.00,,,0.00,VWS V14.01,2013-01-18 03:16:00,
2013-01-17 20:21:00,53.4,15.5,30.17,NNW,346,5.0,5.0,22,0.00,,,0.00,VWS V14.01,2013-01-18 03:21:00,
2013-01-17 20:26:00,53.4,15.5,30.17,NNE,20,6.0,7.0,22,0.00,,,0.00,VWS V14.01,2013-01-18 03:26:00,
2013-01-17 20:31:00,53.3,15.4,30.17,North,5,7.0,10.0,22,0.00,,,0.00,VWS V14.01,2013-01-18 03:31:00,
2013-01-17 20:36:00,53.3,15.4,30.18,NNW,345,6.0,10.0,22,0.00,,,0.00,VWS V14.01,2013-01-18 03:36:00,
2013-01-17 20:41:00,53.2,16.4,30.18,NNW,334,5.0,8.0,23,0.00,,,0.00,VWS V14.01,2013-01-18 03:41:00,
2013-01-17 20:46:00,53.2,16.4,30.18,NNW,336,6.0,7.0,23,0.00,,,0.00,VWS V14.01,2013-01-18 03:46:00,
2013-01-17 20:51:00,53.1,16.3,30.18,NNW,334,6.0,8.0,23,0.00,,,0.00,VWS V14.01,2013-01-18 03:51:00,
2013-01-17 20:56:00,53.2,16.4,30.18,NNW,336,5.0,7.0,23,0.00,,,0.00,VWS V14.01,2013-01-18 03:56:00,
2013-01-17 21:01:00,53.1,16.3,30.18,NNW,346,6.0,8.0,23,0.00,,,0.00,VWS V14.01,2013-01-18 04:01:00,
2013-01-17 21:06:00,52.8,16.0,30.18,North,360,8.0,10.0,23,0.00,,,0.00,VWS V14.01,2013-01-18 04:06:00,
2013-01-17 21:11:00,52.7,16.0,30.18,NNW,342,5.0,8.0,23,0.00,,,0.00,VWS V14.01,2013-01-18 04:11:00,
2013-01-17 21:16:00,52.4,15.7,30.18,NNW,336,5.0,9.0,23,0.00,,,0.00,VWS V14.01,2013-01-18 04:16:00,
2013-01-17 21:21:00,52.3,15.6,30.18,NNW,347,7.0,10.0,23,0.00,,,0.00,VWS V14.01,2013-01-18 04:21:00,
2013-01-17 21:26:00,52.3,15.6,30.18,NNW,336,8.0,9.0,23,0.00,,,0.00,VWS V14.01,2013-01-18 04:26:00,
2013-01-17 21:31:00,52.3,15.6,30.18,NNW,336,4.0,9.0,23,0.00,,,0.00,VWS V14.01,2013-01-18 04:31:00,
2013-01-17 21:36:00,52.1,16.4,30.18,NNW,330,4.0,7.0,24,0.00,,,0.00,VWS V14.01,2013-01-18 04:36:00,
2013-01-17 21:41:00,51.9,16.3,30.18,NNW,344,5.0,6.0,24,0.00,,,0.00,VWS V14.01,2013-01-18 04:41:00,
2013-01-17 21:46:00,51.7,16.1,30.18,NNW,341,4.0,5.0,24,0.00,,,0.00,VWS V14.01,2013-01-18 04:46:00,
2013-01-17 21:51:00,51.3,15.8,30.18,North,355,6.0,6.0,24,0.00,,,0.00,VWS V14.01,2013-01-18 04:51:00,
2013-01-17 21:56:00,51.2,15.7,30.19,NNW,339,6.0,6.0,24,0.00,,,0.00,VWS V14.01,2013-01-18 04:56:00,
2013-01-17 22:01:00,51.2,15.7,30.18,North,5,5.0,9.0,24,0.00,,,0.00,VWS V14.01,2013-01-18 05:01:00,
2013-01-17 22:06:00,51.4,15.8,30.18,NNW,338,5.0,9.0,24,0.00,,,0.00,VWS V14.01,2013-01-18 05:06:00,
2013-01-17 22:11:00,51.4,15.8,30.18,NNW,340,5.0,8.0,24,0.00,,,0.00,VWS V14.01,2013-01-18 05:11:00,
2013-01-17 22:16:00,51.4,15.8,30.18,NNW,346,6.0,10.0,24,0.00,,,0.00,VWS V14.01,2013-01-18 05:16:00,
2013-01-17 22:21:00,51.4,15.8,30.18,NNW,342,6.0,9.0,24,0.00,,,0.00,VWS V14.01,2013-01-18 05:21:00,
2013-01-17 22:26:00,51.2,15.7,30.18,NNW,342,5.0,8.0,24,0.00,,,0.00,VWS V14.01,2013-01-18 05:26:00,
2013-01-17 22:31:00,51.2,16.6,30.18,North,350,6.0,9.0,25,0.00,,,0.00,VWS V14.01,2013-01-18 05:31:00,
2013-01-17 22:36:00,51.1,16.5,30.18,NW,320,8.0,8.0,25,0.00,,,0.00,VWS V14.01,2013-01-18 05:36:00,
2013-01-17 22:41:00,51.0,16.4,30.18,North,355,4.0,6.0,25,0.00,,,0.00,VWS V14.01,2013-01-18 05:41:00,
2013-01-17 22:46:00,50.8,16.3,30.18,NNW,345,5.0,8.0,25,0.00,,,0.00,VWS V14.01,2013-01-18 05:46:00,
2013-01-17 22:51:00,50.5,16.9,30.18,North,351,5.0,8.0,26,0.00,,,0.00,VWS V14.01,2013-01-18 05:51:00,
2013-01-17 22:56:00,50.3,16.7,30.18,NNW,333,6.0,7.0,26,0.00,,,0.00,VWS V14.01,2013-01-18 05:56:00,
2013-01-17 23:01:00,50.3,16.7,30.18,NNW,344,5.0,7.0,26,0.00,,,0.00,VWS V14.01,2013-01-18 06:01:00,
2013-01-17 23:06:00,50.3,16.7,30.18,North,350,8.0,9.0,26,0.00,,,0.00,VWS V14.01,2013-01-18 06:06:00,
2013-01-17 23:11:00,50.4,16.8,30.17,NNW,333,5.0,8.0,26,0.00,,,0.00,VWS V14.01,2013-01-18 06:11:00,
2013-01-17 23:16:00,50.3,16.7,30.18,NNW,342,7.0,7.0,26,0.00,,,0.00,VWS V14.01,2013-01-18 06:16:00,
2013-01-17 23:22:00,50.1,16.6,30.18,NNW,348,6.0,7.0,26,0.00,,,0.00,VWS V14.01,2013-01-18 06:22:00,
2013-01-17 23:27:00,50.0,16.5,30.18,NNW,340,6.0,7.0,26,0.00,,,0.00,VWS V14.01,2013-01-18 06:27:00,
2013-01-17 23:32:00,50.0,16.5,30.18,North,355,5.0,7.0,26,0.00,,,0.00,VWS V14.01,2013-01-18 06:32:00,
2013-01-17 23:37:00,49.9,16.4,30.18,NNW,339,4.0,7.0,26,0.00,,,0.00,VWS V14.01,2013-01-18 06:37:00,
2013-01-17 23:46:00,49.8,16.3,30.17,NW,322,6.0,8.0,26,0.00,,,0.00,VWS V14.01,2013-01-18 06:46:00,
2013-01-17 23:51:00,49.7,16.2,30.17,NNW,340,5.0,9.0,26,0.00,,,0.00,VWS V14.01,2013-01-18 06:51:00,
2013-01-17 23:56:00,49.6,16.1,30.17,North,355,7.0,9.0,26,0.00,,,0.00,VWS V14.01,2013-01-18 06:56:00,